TimePST,TemperatureF,Dew PointF,Humidity,Sea Level PressureIn,VisibilityMPH,Wind Direction,Wind SpeedMPH,Gust SpeedMPH,PrecipitationIn,Events,Conditions,WindDirDegrees,DateUTC
12:17 AM,41.0,39.2,93,29.98,5.0,Calm,Calm,-,0.01,Rain,Light Rain,0,2013-01-07 08:17:00
12:53 AM,41.0,39.0,93,29.99,10.0,SE,3.5,-,0.02,Rain,Light Rain,130,2013-01-07 08:53:00
1:53 AM,41.0,39.9,96,29.97,8.0,ESE,3.5,-,0.01,Rain,Light Rain,120,2013-01-07 09:53:00
2:53 AM,42.1,39.9,92,29.94,10.0,SSE,5.8,-,0.01,,Overcast,160,2013-01-07 10:53:00
3:53 AM,42.8,39.2,87,29.90,10.0,SSE,5.8,-,N/A,,Overcast,160,2013-01-07 11:53:00
4:53 AM,42.1,39.9,92,29.88,8.0,SSE,3.5,-,N/A,,Overcast,150,2013-01-07 12:53:00
5:53 AM,44.1,42.1,93,29.86,10.0,SE,4.6,-,0.00,Rain,Light Rain,140,2013-01-07 13:53:00
6:53 AM,46.0,43.0,89,29.86,10.0,ESE,4.6,-,0.01,Rain,Light Rain,110,2013-01-07 14:53:00
7:53 AM,48.0,43.0,83,29.86,10.0,SE,9.2,-,0.00,,Overcast,140,2013-01-07 15:53:00
8:53 AM,48.9,44.1,83,29.87,9.0,SSE,12.7,-,N/A,,Overcast,160,2013-01-07 16:53:00
9:33 AM,48.2,44.6,87,29.86,9.0,SSE,11.5,19.6,N/A,,Overcast,150,2013-01-07 17:33:00
9:53 AM,48.0,45.0,89,29.89,7.0,SSE,16.1,24.2,N/A,,Overcast,160,2013-01-07 17:53:00
10:36 AM,48.2,46.4,93,29.89,5.0,SSE,16.1,-,0.00,Rain,Light Rain,160,2013-01-07 18:36:00
10:53 AM,48.9,46.0,90,29.91,6.0,SSE,13.8,24.2,0.00,Rain,Light Rain,160,2013-01-07 18:53:00
11:53 AM,48.9,46.9,93,29.92,4.0,SSE,13.8,-,0.00,,Overcast,160,2013-01-07 19:53:00
12:09 PM,48.2,46.4,93,29.91,4.0,SSE,15.0,23.0,N/A,,Overcast,150,2013-01-07 20:09:00
12:33 PM,50.0,46.4,87,29.91,10.0,SSE,16.1,23.0,N/A,,Overcast,160,2013-01-07 20:33:00
12:44 PM,50.0,46.4,87,29.92,10.0,SSE,18.4,27.6,N/A,,Overcast,160,2013-01-07 20:44:00
12:53 PM,51.1,46.9,86,29.94,10.0,SSE,18.4,29.9,N/A,,Overcast,160,2013-01-07 20:53:00
1:37 PM,51.8,46.4,82,29.94,10.0,South,18.4,32.2,N/A,,Mostly Cloudy,170,2013-01-07 21:37:00
1:51 PM,51.8,44.6,76,29.95,10.0,South,13.8,31.1,N/A,,Mostly Cloudy,170,2013-01-07 21:51:00
1:53 PM,51.1,46.0,83,29.96,10.0,South,17.3,31.1,N/A,,Mostly Cloudy,170,2013-01-07 21:53:00
2:33 PM,51.8,44.6,76,29.97,10.0,South,15.0,25.3,N/A,,Scattered Clouds,170,2013-01-07 22:33:00
2:53 PM,51.8,44.6,76,29.97,10.0,SSE,12.7,23.0,N/A,,Mostly Cloudy,150,2013-01-07 22:53:00
3:53 PM,50.0,44.1,80,30.04,10.0,South,13.8,20.7,N/A,,Overcast,170,2013-01-07 23:53:00
4:53 PM,50.0,44.1,80,30.06,10.0,South,8.1,18.4,N/A,,Overcast,180,2013-01-08 00:53:00
5:53 PM,48.9,44.1,83,30.08,10.0,South,11.5,24.2,N/A,,Overcast,170,2013-01-08 01:53:00
6:53 PM,48.9,42.1,77,30.10,10.0,South,10.4,17.3,N/A,,Overcast,170,2013-01-08 02:53:00
7:53 PM,48.0,41.0,77,30.11,10.0,SSE,11.5,-,N/A,,Overcast,160,2013-01-08 03:53:00
8:53 PM,48.0,41.0,77,30.14,10.0,SSE,9.2,-,N/A,,Overcast,160,2013-01-08 04:53:00
9:53 PM,48.0,41.0,77,30.16,10.0,SE,9.2,-,N/A,,Overcast,140,2013-01-08 05:53:00
10:53 PM,46.9,39.9,77,30.16,10.0,SSE,10.4,-,N/A,,Overcast,150,2013-01-08 06:53:00
11:53 PM,46.9,39.9,77,30.17,10.0,SSE,8.1,-,N/A,,Overcast,150,2013-01-08 07:53:00